Spokane Fairchild, WA
on Saturday, January 5, 2013

Saturday
Previous Day Next Day
Daily Summary
 ActualAverage (KGEG)Record (KGEG)
Temperature
Mean Temperature °F 28°F  
Max Temperature 32°F 33°F 54°F (1902)
Min Temperature 21°F 23°F -23°F (1890)
Degree Days
Heating Degree Days 38 37  
Month to date heating degree days 187  
Since 1 July heating degree days 3021  
Cooling Degree Days 0 0  
Month to date cooling degree days 0  
Year to date cooling degree days 0  
Moisture
Dew Point 26°F   
Average Humidity 100    
Maximum Humidity 100    
Minimum Humidity 100    
Precipitation
Precipitation 0.00 in 0.06 in 0.64 in (1926)
Month to date precipitation 0.32  
Year to date precipitation 0.32  
Snow
Snow 0.00 in 0.50 in 7.50 in (2009)
Month to date snowfall 2.4  
Since 1 July snowfall 24.5  
Snow Depth in   
Wind
Wind Speed 6 mph   
Max Wind Speed 10 mph   
Max Gust Speed mph   
Visibility 10 miles   
Events Snow   

Key: T is trace of precipitation, MM is missing value
Source: NWS Daily Summary
Time(PST)TemperatureDew PointHumidity Pressure Visibility Wind DirectionWind SpeedGust SpeedPrecipitationEvents Conditions
12:18 AM 26.6°F 26.6°F 100% 30.32 in 10.0 miles NNE 4.6 mph - N/A   Overcast
12:38 AM 26.6°F 26.6°F 100% 30.32 in 10.0 miles NNE 6.9 mph - N/A   Overcast
12:43 AM 26.6°F 26.6°F 100% 30.32 in 10.0 miles NNE 6.9 mph - N/A   Overcast
12:58 AM 25.9°F 25.9°F 100% 30.43 in 10.0 miles North 6.9 mph - N/A   Overcast
1:03 AM 26.6°F 26.6°F 100% 30.32 in 10.0 miles North 5.8 mph - N/A   Overcast
1:48 AM 26.6°F 26.6°F 100% 30.32 in 10.0 miles NNE 5.8 mph - N/A   Overcast
1:58 AM 26.2°F 26.2°F 100% 30.42 in 10.0 miles NE 6.9 mph - N/A   Overcast
2:28 AM 26.6°F 26.6°F 100% 30.32 in 10.0 miles NNE 5.8 mph - N/A   Overcast
2:38 AM 26.6°F 26.6°F 100% 30.32 in 10.0 miles NNE 5.8 mph - N/A   Overcast
2:48 AM 26.6°F 26.6°F 100% 30.32 in 10.0 miles NNE 5.8 mph - N/A   Overcast
2:58 AM 26.2°F 26.2°F 100% 30.42 in 10.0 miles NNE 5.8 mph - N/A   Overcast
3:28 AM 26.6°F 26.6°F 100% 30.31 in 10.0 miles NNE 8.1 mph - N/A   Overcast
3:58 AM 26.2°F 26.2°F 100% 30.40 in 10.0 miles NE 8.1 mph - N/A   Overcast
3:59 AM 26.6°F 26.6°F 100% 30.30 in 10.0 miles NE 8.1 mph - N/A   Overcast
4:29 AM 26.6°F 26.6°F 100% 30.30 in 10.0 miles NNE 6.9 mph - N/A   Overcast
4:49 AM 26.6°F 26.6°F 100% 30.30 in 10.0 miles NNE 9.2 mph - N/A   Overcast
4:54 AM 26.6°F 26.6°F 100% 30.29 in 10.0 miles NNE 9.2 mph - N/A   Overcast
4:58 AM 26.4°F 26.4°F 100% 30.39 in 10.0 miles NNE 9.2 mph - N/A   Overcast
5:03 AM 26.6°F 26.6°F 100% 30.29 in 10.0 miles NNE 10.4 mph - N/A   Overcast
5:23 AM 26.6°F 26.6°F 100% 30.29 in 10.0 miles NNE 8.1 mph - N/A   Overcast
5:33 AM 26.6°F 26.6°F 100% 30.30 in 10.0 miles NNE 8.1 mph - N/A   Overcast
5:48 AM 26.6°F 26.6°F 100% 30.29 in 10.0 miles NNE 8.1 mph - N/A   Overcast
5:58 AM 26.1°F 26.1°F 100% 30.39 in 10.0 miles NNE 9.2 mph - N/A   Overcast
6:08 AM 26.6°F 26.6°F 100% 30.28 in 10.0 miles NNE 9.2 mph - N/A   Overcast
6:43 AM 26.6°F 26.6°F 100% 30.27 in 10.0 miles NE 10.4 mph - N/A   Overcast
6:53 AM 26.6°F 26.6°F 100% 30.28 in 10.0 miles NNE 6.9 mph - N/A   Scattered Clouds
6:55 AM 26.6°F 26.6°F 100% 30.28 in 10.0 miles NNE 6.9 mph - N/A   Scattered Clouds
6:58 AM 25.9°F 25.9°F 100% 30.38 in 10.0 miles NNE 5.8 mph - N/A   Mostly Cloudy
7:08 AM 24.8°F 24.8°F 100% 30.28 in 10.0 miles NE 5.8 mph - N/A   Mostly Cloudy
7:38 AM 24.8°F 24.8°F 100% 30.27 in 10.0 miles NE 8.1 mph - N/A   Overcast
7:48 AM 24.8°F 24.8°F 100% 30.27 in 10.0 miles NNE 8.1 mph - N/A   Mostly Cloudy
7:58 AM 25.2°F 25.2°F 100% 30.38 in 10.0 miles NNE 9.2 mph - N/A   Mostly Cloudy
8:03 AM 24.8°F 24.8°F 100% 30.28 in 10.0 miles NNE 6.9 mph - N/A   Mostly Cloudy
8:18 AM 24.8°F 24.8°F 100% 30.28 in 10.0 miles NE 5.8 mph - N/A   Overcast
8:53 AM 24.8°F 24.8°F 100% 30.28 in 10.0 miles NE 5.8 mph - N/A   Scattered Clouds
8:58 AM 25.3°F 25.3°F 100% 30.38 in 10.0 miles NNE 4.6 mph - N/A   Partly Cloudy
9:58 AM 26.6°F 26.6°F 100% 30.36 in 10.0 miles NNE 10.4 mph - N/A   Clear
10:58 AM 28.2°F 28.2°F 100% 30.34 in 10.0 miles NNE 8.1 mph - N/A   Overcast
11:58 AM 29.7°F 29.7°F 100% 30.32 in 10.0 miles NNE 8.1 mph - N/A   Mostly Cloudy
12:58 PM 30.4°F 30.4°F 100% 30.31 in 10.0 miles North 3.5 mph - N/A   Overcast
1:58 PM 30.6°F 30.6°F 100% 30.29 in 10.0 miles NE 4.6 mph - N/A   Overcast
1:59 PM 32.0°F 32.0°F 100% 30.20 in 10.0 miles ENE 4.6 mph - N/A   Overcast
2:21 PM 30.2°F 30.2°F 100% 30.20 in 10.0 miles NE 3.5 mph - N/A   Overcast
2:56 PM 30.2°F 30.2°F 100% 30.21 in 10.0 miles Calm Calm - N/A   Overcast
2:58 PM 29.8°F 29.8°F 100% 30.30 in 10.0 miles SSE 1.2 mph - 0.00 in   Overcast
3:43 PM 30.2°F 30.2°F 100% 30.20 in 10.0 miles NE 2.3 mph - N/A   Overcast
3:52 PM 30.2°F 30.2°F 100% 30.20 in 10.0 miles NE 4.6 mph - N/A   Overcast
3:58 PM 29.8°F 29.8°F 100% 30.29 in 10.0 miles NE 4.6 mph - 0.00 in   Overcast
4:41 PM 30.2°F 30.2°F 100% 30.20 in 10.0 miles SSE 4.6 mph - N/A   Overcast
4:53 PM 26.6°F 26.6°F 100% 30.19 in 10.0 miles SSE 8.1 mph - N/A   Mostly Cloudy
4:58 PM 27.0°F 27.0°F 100% 30.29 in 10.0 miles SSE 9.2 mph - 0.00 in   Mostly Cloudy
5:58 PM 25.9°F 25.9°F 100% 30.28 in 10.0 miles SE 4.6 mph - N/A   Overcast
6:13 PM 24.8°F 24.8°F 100% 30.18 in 10.0 miles SW 5.8 mph - N/A   Overcast
6:22 PM 24.8°F 24.8°F 100% 30.18 in 10.0 miles SW 8.1 mph - N/A   Mostly Cloudy
6:37 PM 24.8°F 24.8°F 100% 30.18 in 10.0 miles SSW 8.1 mph - N/A   Mostly Cloudy
6:49 PM 23.0°F 23.0°F 100% 30.18 in 10.0 miles SW 6.9 mph - N/A   Mostly Cloudy
6:58 PM 22.6°F 22.6°F 100% 30.28 in 10.0 miles SW 8.1 mph - 0.00 in   Scattered Clouds
7:15 PM 21.2°F 21.2°F 100% 30.18 in 10.0 miles WSW 8.1 mph - N/A   Scattered Clouds
7:25 PM 21.2°F 21.2°F 100% 30.18 in 10.0 miles WSW 6.9 mph - N/A   Scattered Clouds
7:58 PM 21.6°F 21.6°F 100% 30.29 in 10.0 miles SW 8.1 mph - 0.00 in   Mostly Cloudy
8:09 PM 21.2°F 21.2°F 100% 30.18 in 10.0 miles SW 6.9 mph - N/A Snow Light Snow
8:14 PM 21.2°F 21.2°F 100% 30.18 in 10.0 miles SW 9.2 mph - N/A Snow Light Snow
8:58 PM 21.6°F 21.6°F 100% 30.28 in 4.0 miles South 3.5 mph - 0.00 in Snow Light Snow
9:58 PM 22.6°F 22.6°F 100% 30.26 in 4.0 miles SSE 5.8 mph - 0.00 in Snow Light Snow
10:23 PM 23.0°F 23.0°F 100% 30.15 in 7.0 miles SSE 6.9 mph - N/A Snow Light Snow
10:28 PM 23.0°F 23.0°F 100% 30.15 in 7.0 miles SSE 5.8 mph - N/A Snow Light Snow
10:58 PM 23.2°F 23.2°F 100% 30.25 in 6.0 miles South 5.8 mph - 0.00 in Snow Light Snow
11:08 PM 23.0°F 23.0°F 100% 30.15 in 7.0 miles South 2.3 mph - N/A Snow Light Snow
11:23 PM 23.0°F 23.0°F 100% 30.15 in 4.0 miles WSW 1.2 mph - N/A Snow Light Snow
11:33 PM 23.0°F 23.0°F 100% 30.14 in 4.0 miles SW 3.5 mph - N/A Snow Light Snow
11:50 PM 23.0°F 23.0°F 100% 30.14 in 8.0 miles WSW 4.6 mph - N/A   Overcast
11:58 PM 23.2°F 23.2°F 100% 30.24 in 10.0 miles WSW 2.3 mph - 0.00 in   Overcast
Moon Phase
Jan. 05 Jan. 11 Jan. 18 Jan. 26 Feb. 03
Sunrise:07:38 AM (PST) Moon Rise:12:35 AM (PST)1/5
Sunset:04:14 PM (PST) Moon Set:11:19 AM (PST)1/5

Copyright © 2014 The Weather Underground, Inc.